Tracking 30970 objects as of 3-Jul-2025
HD Live streaming from Space Station
objects crossing your sky now

STARLINK-1672

Track STARLINK-1672 now!
10-day predictions
STARLINK-1672 is classified as:


NORAD ID: 46537
Int'l Code: 2020-070F
Perigee: 553.6 km
Apogee: 555.1 km
Inclination: 53.1 °
Period: 95.6 minutes
Semi major axis: 6925 km
RCS: Unknown
Launch date: October 6, 2020
Source: United States (US)
Launch site: AIR FORCE EASTERN TEST RANGE (AFETR)
Your satellite tracking list
STARLINK-1738
Track 1 satellite(s)




NASA's NSSDC Master Catalog

Two Line Element Set (TLE):
1 46537U 20070F   25183.82867710  .00000058  00000-0  22785-4 0  9993
2 46537  53.0547 218.2887 0001070  83.7899 276.3211 15.06397506261844
Source of the keplerian elements: AFSPC